User: anonymous   Login
Location: Caltech
(34.1382°N, 118.1253°W)
Time: 09:27:32
(UTC-07:00)
Language:

COSMOS 2428 - Orbit

View from above orbital plane
View from above orbital plane
View from above satellite
View from above satellite

Ground track
Ground track

The orbit data is extracted from the following two-line orbital elements,

1 31792U 07029A   17263.46625791  .00000311  00000-0  19457-3 0  9993
2 31792  70.9273 212.1042 0007615 153.5043 206.6468 14.12334638527522
Epoch (UTC): 20 September 2017 11:11:24
Eccentricity: 0.0007615
inclination: 70.9273°
perigee height: 846 km
apogee height: 857 km
right ascension of ascending node: 212.1042°
argument of perigee: 153.5043°
revolutions per day: 14.12334638
mean anomaly at epoch: 206.6468°
orbit number at epoch: 52752

The dashed part of the orbit path shows where the satellite is in the earth's shadow,  

DLR